Regional Weather Roundup
Issued by NWS

Home | Current Version | Previous Version | Text Only | Print | Product List | Glossary On
Versions: 1 2 3 4 5 6 7 8 9 10 11 12 13 14 15 16 17 18 19 20 21 22 23 24 25 26 27 28 29 30 31 32 33 34 35 36 37 38 39 40 41 42 43 44 45 46 47 48 49 50
000
ASUS43 KMPX 240501
RWRMN
WEATHER ROUNDUP FOR MINNESOTA
NATIONAL WEATHER SERVICE TWIN CITIES/CHANHASSEN MN
1100 PM CST SUN NOV 23 2014


NOTE: "FAIR" INDICATES FEW OR NO CLOUDS BELOW 12,000 FEET WITH NO
SIGNIFICANT WEATHER AND/OR OBSTRUCTIONS TO VISIBILITY. N/A MEANS
CURRENT SKY AND/OR WEATHER CONDITIONS ARE NOT AVAILABLE.

MNZ060>063-068>070-240600-
   Twin Cities Metro

CITY           SKY/WX    TMP DP  RH WIND       PRES   REMARKS
TWIN CITIES    DRIZZLE   33  31  92 NW12      29.34F WCI  24
ST PAUL        CLOUDY    34  31  88 NW16      29.35S WCI  24
CRYSTAL        LGT SNOW  35  28  75 NW17G26   29.34S WCI  25
BLAINE         CLOUDY    36  34  93 NW15G25   29.34S
LAKEVILLE      MIX PCPN  30  28  93 NW17G23   29.33F WCI  18
EDEN PRAIRIE   LGT SNOW  33  29  85 NW16G24   29.34S FOG     WCI  23
SOUTH ST PAUL  CLOUDY    35  32  90 NW16G25   29.33S WCI  25
LAKE ELMO      DRIZZLE   36  36 100 NW12      29.32F
$$
MNZ001>005-007-008-013>017-022>024-027-028-240600-
   Northwest Minnesota

CITY           SKY/WX    TMP DP  RH WIND       PRES   REMARKS
BEMIDJI        CLOUDY    20  19  95 W15       29.44S WCI   6
HALLOCK        LGT SNOW  16  12  86 N23       29.58S WCI  -2
ROSEAU         CLOUDY    19  16  86 NW15      29.50R WCI   5
WARROAD        CLOUDY    21  18  86 NW13G23   29.47R FOG     WCI   9
THIEF RVR FALL CLOUDY    18  16  93 NW20      29.52R WCI   1
CROOKSTON      FLURRIES  16  12  86 N22G31    29.57S WCI  -2
FOSSTON        CLOUDY    16  14  93 NW16G22   29.50F FOG     WCI   0
DETROIT LAKES  CLOUDY    19  18  93 NW18G26   29.50F FOG     WCI   4
MOORHEAD       MIX PCPN  19  18  93 NW20      29.58R WCI   4
PARK RAPIDS    CLOUDY    21  19  92 NW18      29.42S WCI   6
MAHNOMEN       CLOUDY    17  16  93 NW15      29.51S FOG     WCI   3
$$
MNZ006-009>011-018-025>026-240600-
   North Central Minnesota

CITY           SKY/WX    TMP DP  RH WIND       PRES   REMARKS
BAUDETTE       CLOUDY    25  23  92 NW10      29.41S WCI  15
FLAG ISLAND    CLOUDY    27  27 100 NW17      29.43R FOG     WCI  14
INTL FALLS     CLOUDY    33  32  96 NW5       29.37S FOG     WCI  29
WASKISH        MIX PCPN  27  25  93 W10       29.42S WCI  17
BIG FORK       DRIZZLE   34  32  93 NW7       29.37S WCI  28
LONGVILLE      CLOUDY    28  27  93 NW9G17    29.38S WCI  20
GRAND RAPIDS   CLOUDY    36  30  80 NW12      29.34F
CRANE LAKE     LGT SNOW  32  30  93 CALM      29.36F
ORR            LGT SNOW  32  30  93 CALM      29.32F
COOK           LGT SNOW  34  32  93 CALM      29.34F
WALKER         CLOUDY    24  21  89 NW10G16   29.41S WCI  13
$$
MNZ012-019>021-037-240600-
   Northeast Minnesota

CITY           SKY/WX    TMP DP  RH WIND       PRES   REMARKS
DULUTH         LGT SNOW  35  33  92 N10       29.28F FOG     WCI  27
ELY            LGT SNOW  34  32  93 NW5       29.31F WCI  30
HIBBING        CLOUDY    35  32  88 N8        29.32F FOG     WCI  29
EVELETH        LGT SNOW  34  32  93 CALM      29.33F
DULUTH HARBOR  DRIZZLE   37  36  93 CALM      29.31F
TWO HARBORS    DRIZZLE   37  34  87 N3        29.27F
SILVER BAY     CLOUDY    37  36  93 CALM      29.26F
GRAND MARAIS     N/A     41  36  82 N8G24     29.27F
G MARAIS ARPRT DRZL/FOG  34  30  86 N9        29.26S VSB 1   WCI  26
$$
MNZ029>031-032-039>041-046>048-054>057-064-240600-
   West Central Minnesota

CITY           SKY/WX    TMP DP  RH WIND       PRES   REMARKS
FERGUS FALLS   CLOUDY    19  18  93 N23       29.54S WCI   2
WHEATON        CLOUDY    19  18  93 NW21G26   29.56S WCI   3
MORRIS           N/A     23  21  93 NW26G33   29.49R FOG     WCI   6
ALEXANDRIA     CLOUDY    27  24  89 NW15G23   29.43F WCI  15
ELBOW LAKE       N/A     21  20  96 NW24      29.49S WCI   4
WADENA         CLOUDY    21  19  93 NW15G22   29.43S WCI   8
GLENWOOD       MOCLDY    27  25  93 NW17      29.43F WCI  14
APPLETON       CLOUDY    25  21  86 NW25G36   29.51S WCI   9
BENSON         CLOUDY    25  23  93 N26G32    29.47S WCI   9
ORTONVILLE     CLOUDY    21  18  86 NW22G31   29.52F WCI   5
MADISON        PTCLDY    27  23  86 NW25      29.53R WCI  11
WILLMAR        CLOUDY    28  25  86 NW18G28   29.45F WCI  16
$$
MNZ033>034-036-042>043-049>051-058-059-240600-
   Central Minnesota

CITY           SKY/WX    TMP DP  RH WIND       PRES   REMARKS
ST CLOUD       CLOUDY    33  26  75 NW16G24   29.37F WCI  23
SAUK CENTRE    CLOUDY    28  23  81 NW16G25   29.41F WCI  16
PAYNESVILLE    CLOUDY    26  23  87 W14G21    29.42F WCI  15
AITKIN         CLOUDY    37  30  75 NW5       29.33F
PINE RIVER     CLOUDY    30  28  93 NW8G17    29.42S WCI  23
BRAINERD       CLOUDY    31  28  89 NW15      29.38S WCI  20
STAPLES        CLOUDY    27  25  93 NW16      29.40S WCI  14
LONG PRAIRIE   CLOUDY    28  25  86 W14       29.40F WCI  17
LITTLE FALLS   CLOUDY    32  27  80 NW13      29.39F WCI  22
LITCHFIELD     CLOUDY    30  27  86 NW14G23   29.41F WCI  20
BUFFALO        CLOUDY    32  26  79 W13G18    29.37F WCI  23
MAPLE LAKE     CLOUDY    33  28  83 NW14G22   29.38F WCI  23
$$
MNZ037-044-045-052-053-240600-
   East Central Minnesota

CITY           SKY/WX    TMP DP  RH WIND       PRES   REMARKS
PRINCETON      FLURRIES  34  30  86 W14       29.35F WCI  24
MORA           CLOUDY    34  32  93 NW9       29.35S WCI  26
CAMBRIDGE      LGT SNOW  34  28  80 W9G17     29.32S WCI  26
RUSH CITY      CLOUDY    36  35  96 NW6       29.32F
MOOSE LAKE     LGT RAIN  36  34  93 N8        29.30F
HINCKLEY       DRIZZLE   36  36 100 NW7       29.31F
CLOQUET        LGT RAIN  34  34 100 NW8       29.30F WCI  27
MCGREGOR       CLOUDY    36  34  93 NW7       29.34F
$$
MNZ071>073-080-081-089-090-097-098-240600-
   Southwest Minnesota

CITY           SKY/WX    TMP DP  RH WIND       PRES   REMARKS
MONTEVIDEO     CLOUDY    25  23  93 N17G26    29.50S WCI  11
GRANITE FALLS  CLOUDY    26  23  90 W26G32    29.51S WCI  10
CANBY          CLOUDY    24  21  85 NW22G30   29.53F WCI   9
MARSHALL       CLOUDY    25  19  80 N22G33    29.49S WCI  10
REDWOOD FALLS  CLOUDY    28  22  78 NW20G32   29.45F WCI  15
OLIVIA         CLOUDY    30  27  86 NW23G30   29.44F WCI  17
PIPESTONE      CLOUDY    25  19  80 NW26G36   29.49F WCI   9
WINDOM         CLOUDY    28  23  80 NW26G32   29.44F WCI  13
WORTHINGTON    CLOUDY    27  21  80 NW22G31   29.47S WCI  12
JACKSON        CLOUDY    30  23  74 NW28G33   29.43S WCI  16
TRACY          CLOUDY    27  23  86 NW26      29.49R WCI  11
SLAYTON        CLOUDY    26  22  85 NW24G33   29.47S WCI  11
$$
MNZ065>067-074>077-082>085-091>093-240600-
   South Central Minnesota

CITY           SKY/WX    TMP DP  RH WIND       PRES   REMARKS
MANKATO        CLOUDY    32  25  74 NW23      29.38F WCI  19
NEW ULM        CLOUDY    28  25  86 NW24G33   29.41F WCI  14
ST JAMES       CLOUDY    30  25  80 NW23G33   29.43S WCI  17
FAIRMONT       CLOUDY    30  21  69 NW22G32   29.41S WCI  17
GLENCOE        MOCLDY    32  29  86 W23       29.38F WCI  20
FARIBAULT      LGT SNOW  34  30  86 W17       29.35F WCI  23
OWATONNA       LGT SNOW  34  30  86 NW15G21   29.34F WCI  24
WASECA         CLOUDY    32  27  80 NW23G30   29.37F WCI  19
ALBERT LEA     LGT SNOW  34  30  86 NW16G25   29.33F WCI  23
$$
MNZ078>079-086>088-094>096-240600-
   Southeast Minnesota

CITY           SKY/WX    TMP DP  RH WIND       PRES   REMARKS
ROCHESTER      LGT RAIN  36  34  92 NW22G31   29.28F FOG
RED WING         N/A     39  37  93 NW12G17   29.30F
STANTON        LGT SNOW  35  32  90 NW16      29.32F WCI  24
DODGE CENTER   LGT SNOW  34  34 100 NW23      29.30F WCI  22
WINONA         CLOUDY    37  37 100 NW16G22   29.25F
AUSTIN         CLOUDY    34  30  86 NW23G31   29.30F WCI  22
PRESTON        CLOUDY    36  35  97 NW21G29   29.25F
$$
ABBREVIATIONS USED IN REMARKS
   TC - TEMPERATURES IN CELSIUS
  WCI - WIND CHILL INDEX
   HX - HEAT INDEX
  VSB - VISIBILITY
$$



USA.gov is the U.S. government's official web portal to all federal, state and local government web resources and services.